User: anonymous   Login
Location: Tyler Bend Campground
(35.9875°N, 92.7606°W)
Time: 23:29:40
(UTC-06:00)
Language:

Iridium 39 - Orbit

View from above orbital plane
View from above orbital plane
View from above satellite
View from above satellite

Ground track
Ground track

The orbit data is extracted from the following two-line orbital elements,

1 25042U 97069D   17349.43751017  .00000126  00000-0  29501-4 0  9996
2 25042  86.3916 301.8656 0021120  72.0690 288.2813 14.46205302 52913
Epoch (UTC): 15 December 2017 10:30:00
Eccentricity: 0.0021120
inclination: 86.3916°
perigee height: 723 km
apogee height: 753 km
right ascension of ascending node: 301.8656°
argument of perigee: 72.0690°
revolutions per day: 14.46205302
mean anomaly at epoch: 288.2813°
orbit number at epoch: 5291

The dashed part of the orbit path shows where the satellite is in the earth's shadow,  

DLR